User: anonymous   Login
Location: Sumter
(33.9203°N, 80.3401°W)
Time: 23:02:36
(UTC+00:00)
Language:

ISS - Orbit

View from above orbital plane
View from above orbital plane
View from above satellite
View from above satellite

Ground track
Ground track

The orbit data is extracted from the following two-line orbital elements,

1 25544U 98067A   22267.86615728  .00008592  00000-0  15693-3 0  9993
2 25544  51.6423 202.7405 0002297 288.7348 126.2340 15.50259419360641
Epoch (UTC): 24 September 2022 20:47:15
Eccentricity: 0.0002297
inclination: 51.6423°
perigee height: 414 km
apogee height: 417 km
right ascension of ascending node: 202.7405°
argument of perigee: 288.7348°
revolutions per day: 15.50259419
mean anomaly at epoch: 126.2340°
orbit number at epoch: 36064

The dashed part of the orbit path shows where the satellite is in the earth's shadow,  

DLR